リニア彗星

C/2001 K5 ( LINEAR )

English version
Home page
Updated on March 5, 2005

---------------------------------------------------------------------

・ プロフィール

発見日 2001年5月17日
発見光度 16.7等
発見者 Lincoln Laboratory Near-Earth Asteroid Research project

・ 写真集

・ 軌道要素

Epoch 2002 Oct. 13.0 TT = JDT 2452560.5
T 2002 Oct. 11.7641 TT                                  MPCN
q   5.184275             (2000.0)            P               Q
z  +0.000091       Peri.   47.0550      -0.1818339      +0.5655360
 +/-0.000004       Node   237.4619      -0.9128647      +0.2070170
e   0.999531       Incl.   72.5935      +0.3655333      +0.7983188
From 231 observations 2001 Apr. 30-2002 Feb. 19, mean residual 0".5.

・ 星図

・ 光度変化

        m1 = -4.1 + 5 logΔ + 21.0 log r

---------------------------------------------------------------------

軌道要素はMPCのEphemerides and Orbital Elementsに掲載されたものです。
星図は StellaNavigator Ver.2.0 for Windows (アストロアーツ 編著 / アスキー出版局刊) で作成したものです。
光度グラフはComet for Windowsで作成したものです。

---------------------------------------------------------------------

Copyright(C) Seiichi Yoshida (comet@aerith.net). All rights reserved.